Home   Weather   Helena   Past weeks

Flag for USA Past Weather in Helena, Montana, USA — Yesterday and Last 2 Weeks

Now
10 °F

Passing clouds.


Feels Like: -1 °F
Forecast: 6 / 24 °F
Wind: 7 mph from Southwest

Location: Helena Regional Airport

Current Time: Feb 27, 2017 at 6:54:23 am

Latest Report: Feb 27, 2017 at 5:53 am


Visibility: 10 mi

Pressure: 29.83 "Hg (25.36 "Hg at 1239m altitude)

Humidity: 80%

Dew Point: 5 °F

Location of HelenaLocation

Past Weather in Helena — Graph

°F

Helena Temperature Yesterday

Maximum temperature yesterday: 33 °F (at 12:53 pm)
Minimum temperature yesterday: 17 °F (at 11:01 pm)
Average temperature yesterday: 24 °F

High & Low Weather Summary for the Past Weeks

 TemperatureHumidityPressure
High54 °F (Feb 21, 3:26 pm)100% (Feb 15, 5:53 am)30.63 "Hg (Feb 15, 5:53 am)
Low10 °F (Feb 27, 4:53 am)27% (Feb 21, 3:53 pm)29.44 "Hg (Feb 18, 8:53 pm)
Average32 °F69%29.95 "Hg
* Reported Feb 12 4:53 am — Feb 27 4:53 am, Helena, Weather by CustomWeather, © 2017

Note: Actual official high and low records may vary slightly from our data, if they occured in-between our weather recording intervals... More about our weather records

Advertising

Helena Weather History for the Previous 24 Hours

Scroll right to see more
 ConditionsComfort  
Time TempWeatherWind HumidityBarometerVisibility
4:53 am
Mon, Feb 27
10 °FClear.6 mph88%29.83 "Hg10 mi
4:12 am12 °FPassing clouds.5 mph92%29.62 "Hg10 mi
3:53 am11 °FOvercast.6 mph92%29.82 "Hg9 mi
2:53 am14 °FLight snow. Ice fog.6 mph92%29.83 "Hg4 mi
2:19 am15 °FLight snow. Ice fog.6 mph91%29.64 "Hg3 mi
1:20 am16 °FLight snow. Ice fog.10 mph92%29.64 "Hg1 mi
1:00 am16 °FLight snow. Ice fog.8 mph92%29.64 "Hg1 mi
12:34 am16 °FLight snow. Ice fog.8 mph92%29.64 "Hg1 mi
12:11 am16 °FLight snow. Ice fog.9 mph92%29.64 "Hg1 mi
11:29 pm
Sun, Feb 26
17 °FLight snow. Ice fog.9 mph92%29.64 "Hg1 mi
11:01 pm17 °FLight snow. Ice fog.8 mph92%29.64 "Hg1 mi
10:15 pm18 °FLight snow. Ice fog.8 mph88%29.64 "Hg1 mi
9:53 pm18 °FLight snow. Ice fog.8 mph88%29.82 "Hg1 mi
9:12 pm18 °FLight snow. Ice fog.8 mph92%29.65 "Hg2 mi
8:31 pm19 °FLight snow. Ice fog.7 mph92%29.65 "Hg2 mi
7:53 pm19 °FLight snow. Ice fog.7 mph88%29.83 "Hg2 mi
7:06 pm20 °FLight snow. Ice fog.8 mph92%29.66 "Hg1 mi
6:53 pm20 °FLight snow. Ice fog.9 mph92%29.84 "Hg1 mi
5:53 pm21 °FLight snow. Ice fog.7 mph92%29.83 "Hg1 mi
4:53 pm23 °FLight snow. Overcast.9 mph81%29.83 "Hg2 mi
4:10 pm25 °FLight snow. Mostly cloudy.9 mph72%29.66 "Hg5 mi
3:53 pm25 °FLight snow. Overcast.8 mph72%29.82 "Hg2 mi
2:53 pm24 °FLight snow. Ice fog.8 mph84%29.83 "Hg3 mi
2:42 pm24 °FLight snow. Ice fog.6 mph88%29.68 "Hg1 mi
2:06 pm24 °FLight snow. Ice fog.13 mph84%29.68 "Hg1 mi
12:53 pm33 °FOvercast.3 mph58%29.80 "Hg10 mi
11:53 am30 °FOvercast.5 mph66%29.85 "Hg10 mi
10:53 am29 °FOvercast.5 mph72%29.85 "Hg10 mi
9:53 am27 °FOvercast.5 mph81%29.87 "Hg10 mi
8:53 am25 °FOvercast.6 mph88%29.88 "Hg10 mi
7:53 am24 °FMore clouds than sun.No wind91%29.88 "Hg10 mi
6:53 am24 °FOvercast.3 mph91%29.88 "Hg10 mi
Weather by CustomWeather, © 2017

See weather overviewHow to use our weather pages